{"data":{"norad_id":65901,"intl_designator":"2025-224V","name":"STARLINK-35249","alt_names":[],"object_type":"PAYLOAD","status":"ACTIVE","operator":null,"country":"US","launch_date":"2025-10-07","launch_site_code":"AFETR","launch_vehicle":null,"mission":null,"orbit_class":"UNKNOWN","rcs_meters":null,"size_class":null,"mass_kg":null,"dimensions":null,"purposes":["comms"],"wikipedia_slug":null,"has_3d_model":false,"image_url":null,"decayed_at":null,"tle_current":{"epoch":"2026-09-20T06:17:33.275616Z","epoch_age_seconds":126739,"freshness":"FRESH","line1":"1 65901U 25224V   26263.26219069  .00021859  00000+0  65607-3 0  9991","line2":"2 65901  53.1590 186.9054 0000757 102.5521 257.5566 15.34405235 54652","mean_motion":15.34405235,"eccentricity":7.57e-5,"inclination_deg":53.159,"raan_deg":186.9054,"arg_perigee_deg":102.5521,"mean_anomaly_deg":257.5566,"bstar":0.00065607,"rev_number":5465,"period_min":93.847437896678,"perigee_km":462.16983029979,"apogee_km":463.20553115645,"semimajor_km":6840.8246807281,"source":"CELESTRAK","updated_at":"2026-09-21T09:00:35.760155Z"}}}